Volver al catálogo

AE2A

ActivoCienciaSSO
NORAD 64591·PAYLOAD·🇯🇵 Japan

Lanzado Jun 23, 2025 desde Vandenberg Space Force Base

Loading…

Próximos Pases (próximas 24 horas)

TLE

ActualizadoSource: Space-Track

Época: Sep 14, 2026, 13:27 UTC

1 64591U 25135BR  26257.56107951  .00003057  00000-0  26506-3 0  9994
2 64591  97.7770  12.3079 0006109  42.8537 317.3160 14.97816296 67334

Sigue AE2A en tiempo real con AllMySat

Download on the App Store